Wind_Speed
88 87 82 79 74 71 65 61 61 66 69 66 66 66 65 65 62 60 57 54 52 49 49 45 43 42 41 40 42 44 45 46 49 49 51 51 53 55 55 57 56 56 56 58 58 60 56 54 54 56 59 62 65 70
90 91 84 82 78 73 68 64 60 63 67 71 65 65 65 70 68 66 60 60 60 55 54 53 52 48 49 50 50 51 51 53 52 54 56 57 57 57 57 57 58 62 60 61 61 65 61 59 57 60 64 67 71 75
96 92 87 86 82 75 71 68 62 58 60 66 68 70 66 69 70 71 69 67 65 64 60 57 56 58 58 57 59 59 60 61 60 62 62 62 62 62 61 59 61 68 64 61 62 66 63 65 65 67 71 76 79 84
95 94 90 88 87 81 76 71 65 60 57 58 66 69 70 69 66 67 65 66 66 65 65 64 63 63 65 65 67 66 66 67 68 67 65 65 65 63 62 63 65 73 68 65 64 66 66 71 71 76 78 84 88 92
87 95 95 90 89 83 78 75 69 64 61 59 58 62 71 71 69 70 68 67 67 68 65 66 65 65 67 70 71 70 70 69 67 65 64 64 65 67 59 59 70 75 68 65 64 68 70 73 78 81 85 89 93 96
80 85 96 95 90 86 81 79 74 69 64 61 57 55 55 61 72 74 71 70 67 68 68 69 69 69 70 70 72 73 71 69 68 65 63 63 67 69 57 59 67 70 69 68 71 72 75 79 83 89 92 94 98 102
73 75 89 96 90 89 83 82 77 74 70 66 64 62 58 57 56 56 65 75 77 77 78 76 75 73 73 73 71 70 69 66 66 63 61 64 67 64 58 59 69 69 71 75 78 80 83 87 90 92 95 98 103 107
76 79 80 85 92 92 86 85 81 76 75 72 68 65 63 59 57 54 55 59 61 61 64 63 59 64 70 68 67 66 66 66 64 63 61 64 63 64 61 71 71 74 75 78 82 86 89 90 92 96 98 104 106 109
72 79 83 82 82 85 96 90 86 83 80 75 74 71 68 63 59 60 63 64 64 61 58 51 52 59 63 64 67 68 68 68 67 66 67 66 63 66 73 77 78 81 83 85 87 89 91 94 97 101 104 106 109 113
70 72 81 80 80 81 90 95 93 88 83 80 81 79 73 69 69 72 70 69 67 65 61 59 61 63 65 68 72 75 77 77 73 70 71 69 67 75 83 84 86 88 90 91 93 94 96 100 102 105 106 110 113 118
72 75 75 78 81 84 86 89 92 93 93 88 87 83 80 80 80 80 78 76 73 71 68 65 67 69 72 73 76 79 80 81 78 73 77 75 75 82 87 90 92 92 93 97 98 98 99 100 105 105 110 114 116 116
80 78 79 82 83 86 87 88 90 91 93 93 92 89 88 89 90 90 87 84 79 76 72 70 72 76 76 79 82 82 85 86 86 82 84 83 85 90 92 94 96 98 102 102 102 101 104 107 109 111 113 115 115 118
79 79 79 82 85 89 92 90 91 93 92 91 93 94 94 96 96 97 93 89 85 82 81 83 84 84 84 85 86 87 90 92 93 93 91 93 95 97 98 101 103 105 105 105 104 107 110 113 114 113 114 116 116 118
75 77 81 83 87 92 89 92 93 93 96 96 97 97 100 104 102 101 97 97 97 94 91 88 89 90 90 92 94 96 97 99 101 100 100 102 102 102 103 106 107 107 108 110 114 115 116 114 114 114 116 117 117 114
76 76 77 80 83 86 89 87 93 96 96 98 100 102 103 105 105 101 98 97 96 98 94 93 93 94 96 98 99 101 103 103 102 104 104 105 106 107 110 112 112 113 114 114 112 112 114 113 112 113 117 117 113 111
75 76 77 79 80 83 86 89 93 97 97 97 98 102 105 106 109 109 108 106 106 103 104 103 101 101 102 103 104 104 104 105 104 107 109 109 111 112 113 112 114 114 113 112 114 113 112 114 115 116 113 110 110 108
73 75 75 77 79 82 85 88 91 98 99 97 99 100 101 102 104 106 107 108 109 110 111 112 109 108 106 107 109 108 107 108 109 109 110 111 111 111 111 111 111 110 110 110 112 115 117 117 111 108 105 106 101 99
71 69 69 70 73 77 82 86 88 94 97 97 99 101 102 105 108 108 109 108 109 109 109 108 106 107 109 108 104 103 104 104 106 106 105 106 106 105 107 107 107 108 112 114 114 113 110 108 107 104 99 96 94 92
65 66 65 66 68 71 75 80 85 89 93 97 98 100 102 106 108 110 109 108 108 109 109 109 109 110 110 107 107 109 110 111 111 111 110 110 110 107 109 110 111 111 109 109 107 106 105 103 98 94 90 88 86 84
61 64 65 67 70 71 72 73 78 82 86 92 96 98 102 106 109 108 107 108 110 110 111 112 113 112 112 112 113 115 114 112 114 114 113 113 112 113 113 111 107 106 105 104 103 100 97 94 90 85 83 80 77 76
60 62 65 66 66 69 71 74 76 76 80 85 89 93 98 100 102 103 105 106 106 107 109 108 107 106 108 110 111 111 112 112 112 112 112 112 111 109 108 107 104 102 100 99 96 92 89 85 80 79 77 75 72 69
54 60 65 66 66 68 71 73 74 76 79 81 82 85 88 92 96 99 101 101 103 104 102 101 102 105 106 106 106 106 106 105 104 102 101 100 100 102 102 100 97 95 91 87 86 83 80 78 76 73 71 69 67 64
52 54 59 64 64 63 64 66 70 73 75 77 79 80 83 85 87 90 91 95 100 101 101 103 105 106 105 102 100 98 97 96 96 96 96 95 95 95 94 91 86 83 82 81 78 75 73 72 70 67 65 63 62 61
46 49 52 54 56 57 58 60 61 62 65 69 71 73 76 79 82 82 85 90 90 90 91 92 93 94 93 93 93 91 89 88 88 87 89 88 84 82 82 81 79 77 74 71 70 70 69 67 66 62 61 61 59 56
41 43 40 39 43 48 52 55 57 58 60 62 64 65 67 69 72 75 77 79 78 79 79 80 80 81 81 81 80 79 78 78 79 79 80 79 76 75 73 71 70 69 68 67 66 66 65 62 61 60 60 58 58 55
37 36 36 38 41 45 49 52 54 57 59 59 61 63 65 66 65 65 68 68 67 69 69 69 69 69 70 70 70 72 73 71 70 70 72 71 70 68 65 64 65 66 64 62 62 61 60 59 59 59 58 56 54 52
33 35 38 42 45 47 49 52 53 55 56 57 58 57 56 56 58 58 59 58 59 59 60 62 64 65 65 64 64 63 64 64 64 63 64 65 64 62 60 58 59 60 60 60 59 57 56 56 56 56 55 53 51 51
33 35 38 40 43 45 46 47 47 48 49 51 52 52 51 50 50 51 54 56 57 57 56 55 55 56 57 57 57 58 59 59 59 59 60 60 58 58 56 55 55 55 56 58 57 54 52 51 51 52 51 51 50 50
32 34 36 37 38 39 40 42 44 45 43 43 42 42 43 46 48 50 51 52 51 51 50 51 53 55 55 54 55 56 56 57 57 57 56 56 53 51 51 52 52 52 53 54 52 52 51 50 50 50 49 48 47 47
30 32 33 33 33 32 32 35 37 39 40 41 41 41 41 44 45 47 49 49 48 48 49 51 51 52 52 51 51 51 52 51 52 53 53 53 52 51 50 50 51 52 52 52 52 50 48 48 48 49 48 48 48 48
26 26 26 27 28 31 33 35 35 36 36 35 34 35 37 40 43 45 44 43 42 44 47 48 48 48 47 47 47 46 46 47 47 48 49 50 51 51 51 51 51 51 51 51 51 50 49 49 49 49 49 49 47 46
25 27 28 29 30 30 29 29 29 30 31 31 34 34 36 38 40 42 39 39 41 42 43 43 43 44 44 44 43 42 43 43 44 45 46 47 49 52 52 52 51 50 50 49 49 49 49 49 47 46 44 43 43 43
24 25 25 25 26 26 27 30 32 32 30 30 30 31 32 35 37 38 38 38 38 38 39 39 39 40 40 41 42 43 43 44 45 45 46 46 46 47 47 48 49 48 47 46 45 45 44 43 42 42 41 42 41 40
Wind_Direction
197 198 200 202 204 203 207 209 209 211 210 213 216 218 217 216 220 226 232 235 239 239 242 244 248 249 254 259 263 267 270 273 275 278 280 284 285 284 286 288 289 291 294 299 299 301 303 301 302 302 303 305 306 307
198 199 202 202 205 205 206 207 211 213 215 214 215 217 220 221 221 225 228 234 238 241 245 249 248 250 254 256 259 263 266 267 271 275 276 280 285 285 287 289 291 294 294 300 300 301 302 301 302 303 306 307 305 306
200 202 203 204 205 206 208 209 210 213 214 218 219 221 222 223 225 227 229 232 234 237 240 247 251 253 255 261 263 264 266 269 271 274 275 278 281 284 287 289 292 292 293 295 300 299 300 301 305 306 307 307 308 309
201 201 205 207 206 207 209 210 212 214 215 218 222 222 224 225 228 232 234 236 237 241 243 244 247 252 257 261 263 265 268 270 275 276 275 277 280 284 286 289 291 290 293 294 295 296 298 301 303 305 308 309 310 309
204 206 207 210 209 209 211 212 215 216 220 219 221 223 228 230 232 235 238 241 244 244 245 248 250 253 256 261 265 267 269 273 274 276 279 281 283 284 287 291 294 293 294 294 295 296 300 302 303 307 308 308 309 309
208 208 208 210 211 211 212 215 217 218 222 223 224 225 228 231 235 236 238 240 242 244 245 248 250 253 257 260 264 268 270 272 274 277 280 282 283 287 291 293 290 291 293 294 295 298 301 304 306 307 309 309 310 311
207 209 211 211 214 214 215 216 220 220 221 225 228 229 229 232 235 238 241 242 244 247 247 249 252 257 258 262 265 267 269 272 274 277 280 283 285 287 289 290 286 290 293 295 297 300 304 306 306 307 308 309 310 312
208 211 211 214 218 218 219 219 220 223 224 225 229 232 234 235 236 238 240 245 248 249 250 250 252 256 261 264 266 268 270 272 275 278 280 281 283 287 291 287 292 294 295 297 300 303 304 305 307 307 307 309 312 313
212 212 212 214 216 221 222 223 223 225 228 229 228 231 233 235 238 241 241 243 246 249 251 253 255 257 262 265 266 268 270 272 274 277 278 278 285 290 289 289 293 294 297 299 302 303 304 304 305 306 308 311 311 310
216 214 213 215 216 219 222 223 225 228 230 232 232 230 232 235 238 241 241 244 246 248 250 251 254 257 260 263 267 268 270 272 273 275 279 283 287 288 287 290 292 295 298 300 301 302 304 305 306 307 308 308 308 309
222 215 216 217 217 217 219 222 226 229 230 232 236 235 235 236 239 242 245 246 247 249 251 252 254 256 258 259 261 265 268 272 274 277 281 283 286 286 288 290 294 295 298 299 301 302 304 303 304 304 305 306 307 308
223 219 215 215 216 219 220 221 224 227 230 234 237 237 238 240 242 244 245 247 249 252 254 255 256 257 259 261 264 267 270 273 276 278 280 283 285 285 288 290 292 295 297 298 299 300 300 302 302 303 304 305 308 310
222 219 216 216 219 220 222 224 225 227 230 233 237 238 240 242 244 246 248 249 253 255 256 255 256 258 261 263 266 269 271 273 276 277 280 281 282 284 286 288 291 292 294 295 297 297 299 300 302 303 305 308 309 309
222 221 219 218 217 218 221 224 226 226 228 232 236 239 241 242 242 247 249 253 254 256 255 255 258 260 262 264 266 268 270 273 275 278 279 280 282 285 289 289 290 291 293 295 295 296 298 300 303 305 306 306 308 310
224 224 223 220 220 221 219 223 225 228 229 231 236 239 242 244 246 248 250 252 253 256 256 257 259 260 262 264 266 269 271 272 274 276 279 281 283 284 285 286 288 291 292 293 295 297 298 299 301 303 305 306 309 310
226 226 225 224 223 222 220 221 226 229 229 232 236 238 241 245 247 248 249 251 253 253 256 257 259 262 263 264 266 268 270 272 274 277 278 279 280 281 283 286 288 290 291 292 295 297 298 300 302 303 306 307 309 311
227 227 226 226 226 227 227 227 228 229 229 231 235 238 241 245 247 248 250 253 255 256 258 260 262 262 263 264 266 268 270 273 277 279 279 279 281 282 285 286 288 291 294 295 297 299 299 300 301 303 305 307 309 310
230 229 229 228 228 228 229 229 228 228 230 231 233 237 241 244 247 249 251 253 256 258 261 262 263 266 268 268 269 271 273 274 275 277 279 281 283 286 288 291 292 294 295 296 297 297 299 301 302 305 306 307 308 309
231 232 231 231 232 232 231 231 230 230 231 233 234 237 239 242 245 248 251 254 255 257 260 263 266 267 268 272 275 276 277 279 281 284 285 286 288 290 291 292 293 293 295 296 298 299 300 302 303 304 306 307 307 306
227 230 229 229 229 230 232 234 234 232 234 235 235 239 241 243 246 249 251 253 256 259 261 263 265 268 271 272 274 275 277 279 281 283 285 286 288 289 290 291 293 295 296 297 299 301 301 302 303 306 306 305 305 306
223 226 230 229 228 228 230 233 233 234 235 237 238 239 241 243 246 249 252 255 257 258 261 264 267 270 271 272 274 275 276 278 279 280 283 285 287 289 290 291 294 296 297 298 300 300 300 304 305 305 304 304 306 307
224 225 229 231 230 229 228 230 231 234 235 237 239 241 243 244 246 249 251 254 258 260 262 264 266 268 269 270 271 273 274 277 279 281 284 286 287 289 292 293 293 294 296 298 299 301 302 302 302 303 303 304 305 305
227 227 229 232 234 236 235 233 233 234 237 239 240 242 244 246 248 250 252 254 256 258 260 262 264 267 269 272 274 276 278 280 282 284 286 288 288 288 288 291 293 296 297 298 299 300 300 300 300 301 303 303 303 304
229 231 232 234 238 241 242 242 243 242 242 243 244 245 246 248 250 251 253 254 257 259 261 263 266 268 271 274 276 278 279 282 284 285 285 284 285 288 290 292 294 295 296 297 297 298 298 298 300 302 301 301 303 304
231 233 235 235 236 238 240 242 244 246 246 247 247 248 250 251 252 253 254 257 261 263 265 267 270 271 273 274 276 278 280 280 280 280 282 285 287 288 290 292 293 294 295 295 296 295 297 300 301 300 300 302 302 302
231 232 233 231 230 233 236 239 241 244 247 248 249 249 250 253 256 258 261 262 264 266 267 268 269 271 273 275 275 274 275 278 281 282 282 285 286 288 290 291 293 293 294 295 295 298 300 300 300 300 301 301 301 302
230 230 229 230 232 234 237 240 243 246 249 252 257 260 263 263 263 263 265 266 267 268 269 269 268 268 270 273 276 278 279 280 282 283 284 285 287 289 290 291 292 291 292 293 295 297 297 298 300 300 300 300 301 302
228 230 232 234 236 238 242 246 250 253 254 255 255 256 260 263 266 267 267 266 265 265 268 273 275 275 276 276 278 279 279 280 281 282 283 284 287 289 290 290 289 288 289 291 294 296 297 299 299 299 299 300 300 300
231 235 237 239 241 243 245 247 249 253 258 261 263 264 263 262 261 261 265 268 270 272 273 274 275 275 276 277 277 278 280 281 283 284 285 287 288 288 288 288 288 290 291 292 295 297 298 298 298 298 299 301 301 301
235 238 241 245 248 251 254 255 254 254 255 256 257 260 262 265 266 267 268 269 272 274 273 272 272 273 274 276 277 280 282 283 284 286 288 289 290 291 291 291 293 293 294 294 295 296 297 298 297 298 299 301 301 302
246 250 251 252 251 250 250 252 255 258 260 263 263 263 262 263 263 264 267 270 271 271 272 273 276 278 279 280 281 281 281 281 282 283 285 287 290 292 293 294 293 293 293 293 294 296 297 297 297 297 298 299 300 301
237 240 242 246 250 254 259 263 265 265 264 262 262 262 265 268 270 272 273 273 272 272 274 275 277 279 280 281 281 282 284 284 285 286 287 288 289 289 291 291 291 291 291 292 294 295 296 296 297 297 298 299 300 302
249 252 255 257 257 257 257 258 261 263 264 266 266 266 268 269 271 273 275 275 276 278 278 278 279 280 282 284 286 287 288 288 289 289 289 288 287 287 288 290 291 292 293 293 294 294 295 296 297 298 300 301 302 302
Height
10384 10397 10410 10424 10435 10446 10457 10467 10476 10486 10494 10502 10511 10519 10526 10534 10540 10547 10553 10558 10563 10567 10571 10576 10578 10581 10583 10584 10584 10585 10586 10585 10585 10585 10583 10582 10580 10578 10574 10570 10569 10565 10563 10559 10554 10547 10548 10543 10538 10530 10523 10517 10511 10503
10375 10388 10402 10415 10427 10440 10450 10458 10468 10477 10485 10494 10502 10510 10517 10524 10530 10537 10542 10548 10553 10558 10562 10566 10570 10572 10573 10574 10575 10575 10576 10574 10575 10574 10573 10571 10569 10566 10563 10560 10556 10548 10548 10545 10539 10530 10529 10527 10525 10517 10511 10503 10497 10487
10366 10381 10393 10406 10418 10430 10441 10450 10459 10469 10477 10486 10493 10501 10508 10515 10521 10526 10532 10537 10542 10547 10551 10556 10560 10561 10562 10563 10563 10564 10564 10563 10563 10562 10561 10559 10557 10554 10552 10550 10544 10532 10533 10533 10528 10515 10514 10508 10504 10497 10491 10483 10475 10465
10358 10371 10385 10396 10408 10421 10432 10443 10452 10461 10469 10477 10484 10491 10498 10505 10511 10516 10521 10526 10531 10535 10540 10544 10547 10549 10550 10551 10551 10552 10552 10551 10550 10548 10547 10546 10543 10543 10541 10537 10533 10516 10520 10519 10515 10505 10502 10492 10489 10479 10472 10461 10452 10440
10351 10363 10375 10388 10400 10412 10424 10435 10444 10452 10459 10466 10474 10481 10488 10494 10500 10505 10510 10515 10519 10523 10530 10530 10534 10537 10538 10538 10538 10538 10538 10537 10535 10534 10533 10532 10530 10524 10529 10527 10516 10501 10504 10502 10498 10491 10486 10479 10469 10462 10455 10443 10433 10422
10341 10355 10368 10379 10391 10403 10414 10425 10435 10443 10451 10458 10465 10472 10478 10483 10489 10492 10498 10503 10506 10509 10515 10518 10522 10524 10525 10525 10525 10524 10522 10521 10521 10521 10520 10519 10514 10507 10515 10513 10498 10489 10487 10485 10480 10476 10471 10463 10454 10443 10434 10424 10414 10402
10334 10348 10361 10371 10383 10395 10404 10414 10424 10433 10441 10448 10455 10461 10466 10471 10476 10483 10488 10489 10490 10495 10500 10504 10509 10514 10512 10511 10510 10507 10506 10506 10505 10507 10507 10503 10498 10495 10500 10495 10479 10480 10475 10469 10462 10457 10452 10444 10435 10427 10413 10402 10391 10378
10324 10337 10349 10362 10374 10385 10394 10404 10414 10422 10430 10437 10443 10450 10454 10460 10466 10471 10474 10473 10476 10480 10484 10494 10502 10500 10495 10497 10494 10492 10491 10491 10492 10491 10493 10488 10485 10480 10483 10468 10468 10462 10460 10454 10447 10440 10433 10424 10414 10403 10393 10381 10368 10354
10312 10324 10337 10348 10358 10370 10382 10393 10402 10410 10418 10425 10430 10436 10441 10449 10456 10456 10454 10458 10460 10466 10473 10486 10488 10485 10483 10482 10477 10475 10473 10473 10477 10478 10475 10472 10476 10469 10457 10449 10451 10445 10441 10436 10430 10421 10413 10403 10392 10380 10368 10356 10344 10332
10298 10310 10322 10334 10345 10355 10366 10377 10387 10395 10403 10410 10414 10421 10431 10437 10437 10431 10436 10441 10448 10453 10463 10471 10472 10471 10469 10466 10460 10457 10455 10455 10460 10463 10458 10460 10463 10449 10435 10432 10427 10425 10420 10415 10408 10399 10390 10378 10367 10356 10345 10334 10322 10309
10282 10295 10306 10319 10330 10339 10349 10359 10370 10379 10385 10392 10399 10409 10419 10418 10416 10415 10420 10426 10434 10440 10449 10456 10455 10453 10450 10447 10444 10439 10437 10435 10438 10446 10440 10443 10444 10429 10419 10413 10409 10404 10398 10391 10383 10375 10366 10355 10346 10337 10325 10313 10301 10286
10266 10277 10288 10301 10312 10322 10332 10342 10352 10361 10369 10376 10384 10392 10397 10397 10397 10397 10401 10408 10421 10428 10437 10441 10437 10430 10432 10428 10425 10426 10420 10417 10418 10426 10422 10423 10419 10407 10401 10395 10389 10384 10376 10369 10362 10355 10345 10335 10325 10314 10302 10288 10276 10260
10251 10262 10272 10284 10295 10305 10316 10325 10336 10346 10353 10358 10362 10369 10373 10374 10375 10374 10386 10396 10404 10412 10419 10418 10416 10413 10412 10412 10409 10406 10402 10400 10399 10401 10402 10398 10393 10386 10383 10377 10371 10365 10357 10351 10344 10333 10322 10312 10299 10288 10277 10262 10251 10238
10235 10244 10255 10266 10276 10286 10298 10309 10318 10327 10335 10339 10343 10347 10349 10351 10356 10360 10371 10378 10382 10387 10394 10396 10396 10397 10395 10392 10387 10385 10383 10380 10377 10380 10378 10371 10368 10365 10359 10352 10345 10339 10334 10327 10315 10307 10296 10285 10275 10262 10248 10237 10228 10214
10220 10229 10239 10249 10259 10269 10279 10289 10297 10305 10315 10320 10323 10325 10328 10333 10339 10345 10349 10355 10360 10364 10367 10370 10372 10373 10372 10370 10368 10365 10362 10361 10361 10358 10354 10350 10346 10341 10333 10326 10321 10316 10307 10298 10290 10281 10271 10261 10252 10241 10225 10212 10199 10186
10203 10212 10222 10232 10242 10251 10259 10269 10276 10285 10293 10299 10304 10306 10309 10316 10321 10323 10326 10328 10333 10338 10341 10343 10346 10347 10347 10347 10346 10344 10343 10341 10339 10334 10331 10326 10319 10312 10308 10305 10298 10289 10282 10275 10265 10256 10245 10234 10224 10214 10202 10187 10176 10161
10187 10194 10205 10214 10226 10234 10241 10248 10258 10266 10272 10281 10286 10289 10292 10295 10297 10300 10304 10306 10310 10314 10315 10318 10322 10322 10323 10322 10322 10320 10319 10319 10316 10310 10302 10295 10291 10289 10286 10279 10271 10264 10256 10247 10236 10227 10217 10205 10196 10187 10178 10164 10151 10138
10170 10181 10192 10201 10211 10218 10224 10231 10240 10247 10253 10261 10264 10268 10272 10276 10278 10280 10283 10287 10290 10290 10292 10292 10296 10293 10292 10292 10295 10297 10296 10293 10287 10281 10276 10271 10267 10264 10259 10252 10245 10236 10228 10218 10209 10199 10188 10179 10170 10161 10152 10141 10131 10117
10159 10166 10176 10186 10192 10199 10205 10212 10220 10228 10235 10239 10244 10248 10252 10256 10259 10261 10263 10266 10268 10268 10270 10270 10270 10268 10265 10270 10272 10269 10264 10261 10258 10256 10251 10245 10240 10237 10231 10224 10217 10208 10201 10192 10181 10172 10162 10154 10146 10138 10129 10118 10109 10099
10144 10149 10157 10164 10172 10180 10185 10193 10198 10208 10215 10218 10226 10232 10236 10236 10237 10240 10243 10245 10246 10247 10249 10247 10243 10243 10249 10249 10246 10242 10240 10236 10234 10231 10225 10221 10217 10210 10202 10195 10189 10183 10174 10164 10155 10147 10138 10131 10123 10117 10106 10096 10088 10080
10129 10135 10139 10146 10154 10161 10167 10173 10179 10187 10193 10197 10202 10209 10214 10217 10219 10221 10223 10223 10225 10229 10227 10222 10222 10223 10223 10223 10220 10218 10216 10215 10212 10208 10203 10198 10191 10184 10178 10170 10163 10156 10147 10138 10132 10125 10116 10109 10102 10093 10084 10075 10069 10062
10117 10121 10123 10128 10136 10143 10148 10154 10161 10167 10172 10176 10181 10186 10191 10195 10196 10199 10201 10205 10206 10201 10204 10205 10203 10200 10198 10196 10195 10195 10192 10190 10188 10185 10180 10174 10167 10159 10152 10145 10139 10131 10124 10118 10111 10107 10097 10088 10081 10073 10066 10058 10052 10044
10103 10109 10112 10114 10121 10128 10135 10140 10146 10150 10154 10158 10163 10167 10171 10174 10178 10180 10184 10184 10178 10179 10183 10180 10176 10174 10174 10174 10173 10171 10171 10168 10163 10159 10154 10148 10143 10136 10128 10120 10114 10110 10106 10099 10090 10085 10078 10068 10061 10056 10049 10042 10034 10027
10094 10097 10102 10107 10112 10118 10123 10127 10131 10136 10140 10143 10147 10150 10152 10154 10156 10159 10160 10155 10155 10159 10160 10161 10161 10159 10156 10153 10151 10148 10146 10144 10141 10136 10130 10123 10119 10113 10107 10102 10097 10091 10086 10081 10073 10065 10057 10051 10044 10039 10032 10025 10018 10012
10085 10089 10095 10102 10105 10108 10111 10114 10116 10119 10121 10124 10128 10132 10134 10136 10137 10137 10137 10136 10142 10143 10142 10142 10141 10139 10136 10133 10130 10127 10125 10123 10117 10113 10106 10100 10100 10094 10091 10085 10079 10072 10066 10059 10053 10046 10040 10036 10030 10023 10016 10010 10003 9997
10079 10084 10088 10091 10093 10095 10097 10099 10102 10103 10105 10109 10111 10112 10112 10115 10118 10123 10121 10122 10124 10123 10123 10121 10120 10118 10116 10114 10111 10107 10102 10100 10099 10095 10087 10083 10077 10074 10073 10067 10060 10052 10046 10043 10038 10032 10026 10020 10014 10008 10002 9996 9989 9982
10071 10075 10077 10079 10081 10083 10085 10087 10089 10091 10093 10094 10096 10099 10101 10103 10103 10105 10104 10104 10104 10104 10103 10101 10098 10096 10095 10093 10091 10089 10085 10080 10077 10074 10069 10062 10059 10057 10053 10050 10044 10037 10031 10025 10020 10016 10011 10005 9999 9993 9988 9982 9975 9969
10063 10065 10066 10069 10071 10073 10075 10078 10081 10082 10083 10084 10084 10085 10088 10089 10091 10090 10087 10085 10084 10083 10083 10083 10082 10079 10077 10074 10073 10068 10064 10062 10059 10056 10051 10046 10045 10039 10036 10032 10027 10022 10016 10011 10006 10002 9996 9990 9985 9979 9974 9968 9963 9957
10055 10056 10058 10061 10063 10065 10066 10068 10068 10068 10071 10073 10074 10077 10076 10075 10073 10070 10069 10068 10069 10069 10068 10067 10064 10060 10058 10056 10055 10051 10048 10044 10041 10037 10034 10030 10028 10025 10019 10015 10011 10006 10001 9995 9991 9986 9981 9976 9971 9965 9961 9956 9952 9946
10048 10050 10051 10053 10055 10057 10059 10059 10059 10059 10059 10059 10060 10061 10061 10059 10058 10057 10056 10055 10055 10055 10053 10050 10047 10045 10043 10041 10039 10036 10032 10029 10025 10021 10017 10013 10009 10006 10002 9998 9994 9989 9985 9981 9976 9972 9967 9962 9957 9952 9948 9943 9939 9934
10041 10043 10044 10045 10045 10046 10046 10046 10047 10048 10049 10051 10052 10051 10050 10047 10045 10044 10044 10043 10043 10040 10036 10034 10031 10029 10027 10025 10023 10022 10019 10015 10011 10007 10003 9998 9994 9990 9986 9982 9979 9975 9971 9966 9962 9957 9953 9949 9944 9940 9935 9931 9926 9921
10034 10034 10035 10036 10037 10038 10038 10038 10039 10038 10039 10040 10038 10037 10036 10035 10031 10029 10029 10029 10027 10025 10023 10021 10018 10015 10012 10009 10007 10004 10001 9998 9995 9992 9988 9984 9980 9976 9972 9969 9965 9961 9956 9952 9948 9943 9939 9935 9931 9927 9923 9918 9913 9908
10028 10028 10029 10030 10030 10031 10031 10030 10028 10028 10028 10028 10028 10027 10026 10023 10020 10018 10017 10015 10014 10011 10009 10006 10003 10000 9997 9994 9991 9988 9986 9982 9979 9975 9973 9970 9967 9963 9958 9954 9949 9945 9941 9938 9933 9929 9925 9922 9918 9914 9910 9905 9901 9896